Regional Weather Roundup
Issued by NWS

Home | Current Version | Previous Version | Graphics & Text | Print | Product List | Glossary On
Versions: 1 2 3 4 5 6 7 8 9 10 11 12 13 14 15 16 17 18 19 20 21 22 23 24 25 26 27
000
ASUS43 KDMX 180307
RWRIA

WEATHER ROUNDUP FOR IOWA
NATIONAL WEATHER SERVICE DES MOINES IA
1000 PM CDT THU APR 17 2014

NOTE: "FAIR" INDICATES FEW OR NO CLOUDS BELOW 12,000 FEET WITH NO
SIGNIFICANT WEATHER AND/OR OBSTRUCTIONS TO VISIBILITY.

* - THESE STATIONS ARE NOT NWS STATIONS...THUS NOT UNDER NWS
QUALITY CONTROL.  THEY ALSO DO NOT REPORT WEATHER SUCH
AS PRECIPITATION OR FOG.

IAZ001>003-012>014-020>022-031>034-043>046-180400-
   NORTHWEST IOWA

CITY           SKY/WX    TMP DP  RH WIND       PRES   REMARKS
CARROLL *      CLOUDY    39  27  60 E7        30.28R WCI  34
CHEROKEE *     PTCLDY    39  27  60 NE5       30.28R
DENISON *      MOCLDY    39  27  60 SE6       30.26R WCI  35
LE MARS *      CLOUDY    45  27  49 E7        30.27S
ORANGE CITY *  PTCLDY    43  28  56 E6        30.27S
SHELDON *      CLOUDY    34  27  75 NE7       30.27S WCI  28
SIOUX CITY     MOCLDY    46  24  42 E5        30.26R
SPENCER        PTCLDY    35  28  75 E7        30.29R WCI  29
STORM LAKE *   PTCLDY    39  28  65 E13       30.28R WCI  32
$$

IAZ055>058-069>071-079>083-090>094-180400-
   SOUTHWEST IOWA

CITY           SKY/WX    TMP DP  RH WIND       PRES   REMARKS
ATLANTIC *     CLOUDY    37  27  65 N5        30.27R WCI  34
AUDUBON *      PTCLDY    34  21  60 CALM      30.28S
CLARINDA *     CLEAR     37  30  75 CALM      30.29S
COUNCIL BLFS * CLEAR     46  25  42 CALM      30.26R
CRESTON *      CLEAR     43  28  56 E3        30.27S
HARLAN  *      PTCLDY    37  27  65 CALM      30.30S
LAMONI         CLEAR     47  30  51 E3        30.27R
RED OAK *      CLEAR     39  30  70 CALM      30.27S
SHENANDOAH *   CLEAR     39  28  65 CALM      30.28S
$$

IAZ047>049-059>061-072>074-084-180400-
   CENTRAL IOWA

CITY           SKY/WX    TMP DP  RH WIND       PRES   REMARKS
AMES           CLEAR     39  31  72 NE6       30.30R WCI  35
ANKENY *       CLEAR     41  32  70 NE3       30.30R
CHARITON *     MOCLDY    45  30  57 E3        30.28S
DES MOINES     CLEAR     47  30  51 E8        30.30R
GRINNELL*      CLEAR     39  32  75 N7        30.31R WCI  34
KNOXVILLE *    CLEAR     45  30  57 E3        30.29R
MARSHALLTOWN   CLEAR     35  31  85 NE8       30.31R WCI  29
NEWTON *       CLEAR     39  32  75 NE6       30.31R WCI  35
PELLA *        CLEAR     43  32  65 CALM      30.30S
PERRY *          N/A     43  28  56 NE6       30.29R
$$

IAZ004>006-015-016-023>025-035-036-180400-
   NORTH CENTRAL IOWA

CITY           SKY/WX    TMP DP  RH WIND       PRES   REMARKS
ALGONA *       CLEAR     36  30  80 NE5       30.31R WCI  32
CLARION *      CLEAR     34  30  86 NE8       30.31S WCI  27
ESTHERVILLE    MOCLDY    32  29  88 NE6       30.29R WCI  26
FORT DODGE *   CLEAR     37  28  70 NE6       30.31R WCI  33
MASON CITY     CLEAR     29  27  92 CALM      30.32R
FOREST CITY *  CLEAR     32  32 100 CALM      30.31R FOG
IOWA FALLS *     N/A     36  30  80 NE3       30.32R
$$

IAZ007>011-017>019-026>030-037>042-050>054-066-180400-
   NORTHEAST IOWA

CITY           SKY/WX    TMP DP  RH WIND       PRES   REMARKS
CEDAR RAPIDS   CLEAR     37  30  75 N9        30.28R WCI  30
CHARLES CITY * PTCLDY    34  30  86 N5        30.32R WCI  30
CLINTON *      MOCLDY    39  30  70 NW8       30.29S WCI  34
DECORAH *      CLOUDY    34  30  86 N6        30.30R WCI  29
DUBUQUE        CLEAR     37  31  78 NW8       30.28R WCI  31
MONTICELLO *   CLEAR     37  32  81 N7        30.29R WCI  32
OELWEIN *      CLEAR    N/A N/A N/A NW6       30.32R
WATERLOO       CLEAR     33  29  85 NE3       30.32R
$$

IAZ064-065-067-068-078-180400-
   EAST CENTRAL IOWA

CITY           SKY/WX    TMP DP  RH WIND       PRES   REMARKS
DAVENPORT      MOCLDY    43  34  70 NW7       30.29R
IOWA CITY      CLEAR     40  32  73 W5        30.30R
MT. PLEASANT * PTCLDY    48  32  53 NW3       30.28S
MUSCATINE *    CLEAR     43  34  70 NW6       30.29R
QUAD CITIES    MOCLDY    44  34  67 W5        30.27S
$$

IAZ062-063-075>077-085>089-095>099-180400-
   SOUTHEAST IOWA

CITY           SKY/WX    TMP DP  RH WIND       PRES   REMARKS
BURLINGTON     MOCLDY    44  36  73 W3        30.28R
FAIRFIELD *    CLEAR     39  30  70 N7        30.29S WCI  34
FORT MADISON * CLEAR     46  37  71 CALM      30.29S
KEOKUK *       CLEAR     45  36  70 CALM      30.28R
OSKALOOSA *      N/A     43  32  65 CALM      30.29S
CENTERVILLE *  CLEAR     45  32  61 NE3       30.29S
OTTUMWA        CLEAR     42  30  62 NE5       30.28S
WASHINGTON *   CLEAR     41  32  70 NW5       30.29S
$$

ABBREVIATIONS USED IN REMARKS
   TC - TEMPERATURES IN CELSIUS
  WCI - WIND CHILL INDEX
   HX - HEAT INDEX
  VSB - VISIBILITY
$$




USA.gov is the U.S. government's official web portal to all federal, state and local government web resources and services.